Weather in Dibgashi

Russia / Republic of Dagestan     42°09′54″N   47°41′35″E
temp.,
°C
wind,
m/s
gust,
m/s
humid.,
%
clouds,
%
prec.,
mm/h
press.,
hPa
HPBL,
m
16 april, fri
fri1600:00+10w226771 0.0 101814
03:00+9w226838 0.0 101914
06:00+10wsw22658 0.0 102018
09:00+15e33431 0.0 10201143
12:00+16e43401 0.0 10191472
15:00+15e434594 0.1 10191227
18:00+11ese116558 0.7 102086
21:00+10sw226647 0.8 102014
17 april, sat
sat1700:00+10wsw22631 0.0 101914
03:00+10wsw32515 0.0 101920
06:00+11wsw22495 0.0 101920
09:00+18ese343523 0.0 1017596
12:00+20e3337100 0.0 1016930
15:00+19ene334293 0.0 1016944
18:00+14ne116597 0.0 101956
21:00+12wnw2272100 0.0 102014
18 april, sun
sun1800:00+11wsw1176100 0.0 101913
03:00+11sw1173100 0.0 101911
06:00+11s117488 0.0 102027
09:00+14ene2265100 0.0 1019799
12:00+15ene325994 0.0 1018956
15:00+16ene325465 0.1 1017879
18:00+12ene1172100 0.7 101883
21:00+11nw118492 1.1 101912
19 april, mon
mon1900:00+10nw1187100 0.5 102025
03:00+10n1188100 1.3 101910
06:00+11ssw2284100 0.0 101844
09:00+15e216489 0.0 1018402
12:00+19e434981 0.0 1017843
15:00+19e4346100 0.0 1016789
18:00+14se226270 0.0 101658
21:00+12ssw117211 0.0 101710
20 april, tue
tue2000:00+11ssw1177100 0.0 101711
03:00+12ssw227294 0.0 101512
06:00+13ssw2361100 0.0 101450
09:00+19se3348100 0.0 1012387
12:00+22ese334499 0.0 1009568
15:00+22e324732 0.1 1007448
18:00+16ese1165100 0.0 100737
21:00+16w1152100 0.0 100721